📊 John's Weather Station

Last reading: 2020-12-02 16:03:38

TEMPERATURE

--

Temperature 20 readings
Min Max Average
22.00 °C 23.25 °C 22.69 °C

HUMIDITY

--

Humidity 20 readings
Min Max Average
61.49 % 62.46 % 61.83 %

View Latest 20 Readings

ID Sensor Location Temp Humid Bar Timestamp
40942 BME280 Lounge 23.25 61.50 1014.06 2020-12-02 16:03:38
40941 BME280 Lounge 23.17 61.49 1014.10 2020-12-02 15:53:37
40940 BME280 Lounge 23.08 61.54 1014.26 2020-12-02 15:43:35
40939 BME280 Lounge 23.00 61.60 1014.50 2020-12-02 15:33:34
40938 BME280 Lounge 22.95 61.57 1014.80 2020-12-02 15:23:33
40937 BME280 Lounge 22.88 61.67 1015.07 2020-12-02 15:13:32
40936 BME280 Lounge 22.87 61.63 1015.15 2020-12-02 15:03:30
40935 BME280 Lounge 22.84 61.61 1015.31 2020-12-02 14:53:29
40934 BME280 Lounge 22.81 61.59 1015.66 2020-12-02 14:43:28
40933 BME280 Lounge 22.78 61.61 1015.53 2020-12-02 14:33:25
40932 BME280 Lounge 22.76 61.60 1015.48 2020-12-02 14:23:24
40931 BME280 Lounge 22.69 61.79 1015.74 2020-12-02 14:13:23
40930 BME280 Lounge 22.64 61.87 1015.84 2020-12-02 14:03:22
40929 BME280 Lounge 22.58 61.99 1015.92 2020-12-02 13:53:21
40928 BME280 Lounge 22.50 62.18 1015.96 2020-12-02 13:43:19
40927 BME280 Lounge 22.42 62.25 1016.30 2020-12-02 13:33:18
40926 BME280 Lounge 22.30 62.30 1016.51 2020-12-02 13:23:16
40925 BME280 Lounge 22.21 62.35 1016.62 2020-12-02 13:13:15
40924 BME280 Lounge 22.10 62.46 1016.54 2020-12-02 13:03:13
40923 BME280 Lounge 22.00 62.02 1016.78 2020-12-02 12:53:11